timestamp,surface_pressure_avg,surface_temp_avg,battery_voltage,lat,long
2020-10-26 00:09:01+00:00,241.6181,12.1,12.81,47.84626,-54.09684
2020-10-26 00:19:01+00:00,248.9614,12.1,12.73,47.84626,-54.09684
2020-10-26 00:29:01+00:00,252.7864,12.1,12.73,47.84626,-54.09684
2020-10-26 00:39:01+00:00,248.8397,12.1,12.73,47.84626,-54.09684
2020-10-26 00:49:01+00:00,246.5431,12.1,12.73,47.84626,-54.09684
2020-10-26 00:59:01+00:00,246.3831,12.08,12.73,47.84626,-54.09684
2020-10-26 01:09:01+00:00,244.3631,12.0,12.73,47.84626,-54.09684
2020-10-26 01:19:01+00:00,243.2298,12.0,12.73,47.84626,-54.09684
2020-10-26 01:29:01+00:00,243.5281,12.0,12.73,47.84626,-54.09684
2020-10-26 01:39:01+00:00,241.588,11.98,12.73,47.84626,-54.09684
2020-10-26 01:49:01+00:00,237.248,11.99,12.73,47.84626,-54.09684
2020-10-26 01:59:01+00:00,238.6564,12.0,12.73,47.84626,-54.09684
2020-10-26 02:09:01+00:00,244.1297,12.0,12.73,47.84626,-54.09684
2020-10-26 02:19:01+00:00,248.2381,12.0,12.73,47.84626,-54.09684
2020-10-26 02:29:01+00:00,247.0681,12.0,12.73,47.84626,-54.09684
2020-10-26 02:39:01+00:00,243.4314,12.0,12.73,47.84626,-54.09684
2020-10-26 02:49:01+00:00,240.7114,11.99,12.73,47.84626,-54.09684
2020-10-26 02:59:01+00:00,238.1614,11.97,12.73,47.84626,-54.09684
2020-10-26 03:09:01+00:00,239.4981,11.9,12.73,47.84626,-54.09684
2020-10-26 03:19:01+00:00,240.1614,11.9,12.65,47.84626,-54.09684
2020-10-26 03:29:01+00:00,238.5281,11.9,12.65,47.84626,-54.09684
2020-10-26 03:39:01+00:00,238.723,11.9,12.65,47.84626,-54.09684
2020-10-26 03:49:01+00:00,242.3864,11.9,12.65,47.84626,-54.09684
2020-10-26 03:59:01+00:00,248.1964,11.9,12.65,47.84626,-54.09684
2020-10-26 04:09:01+00:00,253.4664,11.9,12.65,47.84626,-54.09684
2020-10-26 04:19:01+00:00,258.3997,11.87,12.65,47.84626,-54.09684
2020-10-26 04:29:01+00:00,265.4398,11.8,12.65,47.84626,-54.09684
2020-10-26 04:39:01+00:00,272.048,11.8,12.65,47.84626,-54.09684
2020-10-26 04:49:01+00:00,272.9864,11.8,12.65,47.84626,-54.09684
2020-10-26 04:59:01+00:00,272.6514,11.8,12.65,47.84626,-54.09684
2020-10-26 05:09:01+00:00,281.2647,11.76,12.65,47.84626,-54.09684
2020-10-26 05:19:01+00:00,291.4647,11.75,12.65,47.84626,-54.09684
2020-10-26 05:29:01+00:00,293.5829,11.7,12.65,47.84626,-54.09684
2020-10-26 05:39:01+00:00,295.0447,11.7,12.65,47.84626,-54.09684
2020-10-26 05:49:01+00:00,298.8747,11.66,12.65,47.84626,-54.09684
2020-10-26 05:59:01+00:00,300.7563,11.6,12.65,47.84626,-54.09684
2020-10-26 06:09:01+00:00,302.1263,11.6,12.65,47.84626,-54.09684
2020-10-26 06:19:01+00:00,307.0197,11.6,12.57,47.84626,-54.09684
2020-10-26 06:29:01+00:00,307.498,11.57,12.57,47.84626,-54.09684
2020-10-26 06:39:01+00:00,306.8597,11.5,12.57,47.84626,-54.09684
2020-10-26 06:49:01+00:00,310.7114,11.51,12.57,47.84626,-54.09684
2020-10-26 06:59:01+00:00,314.8163,11.55,12.57,47.84626,-54.09684
2020-10-26 07:09:01+00:00,314.6113,11.5,12.57,47.84626,-54.09684
2020-10-26 07:19:01+00:00,316.4963,11.5,12.57,47.84626,-54.09684
2020-10-26 07:29:01+00:00,321.6246,11.35,12.57,47.84626,-54.09684
2020-10-26 07:39:01+00:00,323.7897,11.17,12.57,47.84626,-54.09684
2020-10-26 07:49:01+00:00,324.4464,11.4,12.57,47.84626,-54.09684
2020-10-26 07:59:01+00:00,330.0213,11.37,12.57,47.84626,-54.09684
2020-10-26 08:09:01+00:00,331.3447,11.4,12.57,47.84626,-54.09684
2020-10-26 08:19:01+00:00,327.4979,11.4,12.57,47.84626,-54.09684
2020-10-26 08:29:01+00:00,328.0797,11.4,12.57,47.84626,-54.09684
2020-10-26 08:39:01+00:00,334.833,11.4,12.57,47.84626,-54.09684
2020-10-26 08:49:01+00:00,331.8697,11.39,12.57,47.84626,-54.09684
2020-10-26 08:59:01+00:00,320.7697,11.34,12.57,47.84626,-54.09684
2020-10-26 09:09:01+00:00,318.748,11.32,12.57,47.84626,-54.09684
2020-10-26 09:19:01+00:00,321.728,11.3,12.57,47.84626,-54.09684
2020-10-26 09:29:01+00:00,313.7163,11.3,12.57,47.84626,-54.09684
2020-10-26 09:39:01+00:00,305.7429,11.3,12.57,47.84626,-54.09684
2020-10-26 09:49:01+00:00,305.0164,11.3,12.57,47.84626,-54.09684
2020-10-26 09:59:01+00:00,304.088,11.3,12.57,47.84626,-54.09684
2020-10-26 10:09:01+00:00,292.063,11.29,12.57,47.84626,-54.09684
2020-10-26 10:19:01+00:00,285.9647,11.2,12.49,47.84626,-54.09684
2020-10-26 10:29:01+00:00,286.8915,11.2,12.49,47.84626,-54.09684
2020-10-26 10:39:01+00:00,285.4231,11.2,12.49,47.84626,-54.09684
2020-10-26 10:49:01+00:00,275.2513,11.2,12.49,47.84626,-54.09684
2020-10-26 10:59:01+00:00,271.71299999999997,11.19,12.49,47.84626,-54.09684
2020-10-26 11:09:01+00:00,270.5497,11.16,12.49,47.84626,-54.09684
2020-10-26 11:19:01+00:00,262.9264,11.1,14.32,47.84626,-54.09684
2020-10-26 11:29:01+00:00,256.0164,11.1,14.32,47.84626,-54.09684
2020-10-26 11:39:01+00:00,256.7031,11.1,14.32,47.84626,-54.09684
2020-10-26 11:49:01+00:00,253.2347,11.11,14.32,47.84626,-54.09684
2020-10-26 11:59:01+00:00,243.5864,11.11,14.32,47.84626,-54.09684
2020-10-26 12:09:01+00:00,235.4514,11.1,14.32,47.84626,-54.09684
2020-10-26 12:19:01+00:00,230.6248,11.1,14.72,47.84626,-54.09684
2020-10-26 12:29:01+00:00,222.2214,11.1,14.72,47.84626,-54.09684
2020-10-26 12:39:01+00:00,219.7047,11.1,14.72,47.84626,-54.09684
2020-10-26 12:49:01+00:00,220.8447,11.1,14.72,47.84626,-54.09684
2020-10-26 12:59:01+00:00,219.6631,11.1,14.72,47.84626,-54.09684
2020-10-26 13:09:01+00:00,218.7231,11.1,14.72,47.84626,-54.09684
2020-10-26 13:19:01+00:00,217.7948,11.1,14.72,47.84626,-54.09684
2020-10-26 13:29:01+00:00,217.1132,11.1,14.72,47.84626,-54.09684
2020-10-26 13:39:01+00:00,220.4565,11.1,14.72,47.84626,-54.09684
2020-10-26 13:49:01+00:00,219.1348,11.13,14.72,47.84626,-54.09684
2020-10-26 13:59:01+00:00,215.3148,11.12,14.72,47.84626,-54.09684
2020-10-26 14:09:01+00:00,213.3365,11.1,14.72,47.84626,-54.09684
2020-10-26 14:19:01+00:00,212.683,11.1,14.64,47.84626,-54.09684
2020-10-26 14:29:01+00:00,212.0464,11.1,14.64,47.84626,-54.09684
2020-10-26 14:39:01+00:00,211.1581,11.14,14.64,47.84626,-54.09684
2020-10-26 14:49:01+00:00,212.0847,11.15,14.64,47.84626,-54.09684
2020-10-26 14:59:01+00:00,214.4714,11.17,14.64,47.84626,-54.09684
2020-10-26 15:09:01+00:00,215.6614,11.19,14.64,47.84626,-54.09684
2020-10-26 15:19:01+00:00,217.3798,11.2,14.64,47.84626,-54.09684
2020-10-26 15:29:01+00:00,218.7997,11.2,14.64,47.84626,-54.09684
2020-10-26 15:39:01+00:00,218.5698,11.19,14.64,47.84626,-54.09684
2020-10-26 15:49:01+00:00,218.9481,11.17,14.64,47.84626,-54.09684
2020-10-26 15:59:01+00:00,219.0497,11.14,14.64,47.84626,-54.09684
2020-10-26 16:09:01+00:00,220.3881,11.1,14.64,47.84626,-54.09684
2020-10-26 16:19:01+00:00,221.6165,11.1,14.24,47.84626,-54.09684
2020-10-26 16:29:01+00:00,223.0714,11.1,14.24,47.84626,-54.09684
2020-10-26 16:39:01+00:00,222.9032,11.1,14.24,47.84626,-54.09684
2020-10-26 16:49:01+00:00,226.1381,11.1,14.24,47.84626,-54.09684
2020-10-26 16:59:01+00:00,231.5664,11.1,14.24,47.84626,-54.09684
2020-10-26 17:09:01+00:00,239.6964,11.1,14.24,47.84626,-54.09684
2020-10-26 17:19:01+00:00,248.1681,11.1,14.48,47.84626,-54.09684
2020-10-26 17:29:01+00:00,255.4164,11.1,14.48,47.84626,-54.09684
2020-10-26 17:39:01+00:00,264.9481,11.1,14.48,47.84626,-54.09684
2020-10-26 17:49:01+00:00,270.5598,11.1,14.48,47.84626,-54.09684
2020-10-26 17:59:01+00:00,268.993,11.1,14.48,47.84626,-54.09684
2020-10-26 18:09:01+00:00,269.6664,11.1,14.48,47.84626,-54.09684
2020-10-26 18:19:01+00:00,275.3564,11.09,14.32,47.84626,-54.09684
2020-10-26 18:29:01+00:00,277.6381,11.0,14.32,47.84626,-54.09684
2020-10-26 18:39:01+00:00,279.6247,11.0,14.32,47.84626,-54.09684
2020-10-26 18:49:01+00:00,285.2347,11.0,14.32,47.84626,-54.09684
2020-10-26 18:59:01+00:00,291.1497,11.07,14.32,47.84626,-54.09684
2020-10-26 19:09:01+00:00,295.08799999999997,11.1,14.32,47.84626,-54.09684
2020-10-26 19:19:01+00:00,296.5263,11.1,14.0,47.84626,-54.09684
2020-10-26 19:29:01+00:00,302.558,11.19,14.0,47.84626,-54.09684
2020-10-26 19:39:01+00:00,311.738,11.18,14.0,47.84626,-54.09684
2020-10-26 19:49:01+00:00,314.238,11.2,14.0,47.84626,-54.09684
2020-10-26 19:59:01+00:00,309.7563,11.19,14.0,47.84626,-54.09684
2020-10-26 20:09:01+00:00,307.033,11.2,14.0,47.84626,-54.09684
2020-10-26 20:19:01+00:00,310.328,11.2,13.6,47.84626,-54.09684
2020-10-26 20:29:01+00:00,305.5164,11.2,13.6,47.84626,-54.09684
2020-10-26 20:39:01+00:00,311.3914,11.0,13.6,47.84626,-54.09684
2020-10-26 20:49:01+00:00,319.313,11.0,13.6,47.84626,-54.09684
2020-10-26 20:59:01+00:00,322.3447,11.06,13.6,47.84626,-54.09684
2020-10-26 21:09:01+00:00,317.5397,11.1,13.6,47.84626,-54.09684
2020-10-26 21:19:01+00:00,315.4213,11.1,13.21,47.84626,-54.09684
2020-10-26 21:29:01+00:00,314.288,11.1,13.21,47.84626,-54.09684
2020-10-26 21:39:01+00:00,308.258,11.1,13.21,47.84626,-54.09684
2020-10-26 21:49:01+00:00,302.2363,11.06,13.21,47.84626,-54.09684
2020-10-26 21:59:01+00:00,299.0747,11.09,13.21,47.84626,-54.09684
2020-10-26 22:09:01+00:00,298.248,11.1,13.21,47.84626,-54.09684
2020-10-26 22:19:01+00:00,293.903,11.09,12.81,47.84626,-54.09684
2020-10-26 22:29:01+00:00,289.4847,11.09,12.81,47.84626,-54.09684
2020-10-26 22:39:01+00:00,287.8147,11.07,12.81,47.84626,-54.09684
2020-10-26 22:49:01+00:00,281.183,11.04,12.81,47.84626,-54.09684
2020-10-26 22:59:01+00:00,271.5781,11.05,12.81,47.84626,-54.09684
2020-10-26 23:09:01+00:00,267.7164,11.0,12.81,47.84626,-54.09684
2020-10-26 23:19:01+00:00,269.078,11.0,12.73,47.84626,-54.09684
2020-10-26 23:29:01+00:00,265.4247,11.0,12.73,47.84626,-54.09684
2020-10-26 23:39:01+00:00,260.1515,11.0,12.73,47.84626,-54.09684
2020-10-26 23:49:01+00:00,250.9897,11.0,12.73,47.84626,-54.09684
2020-10-26 23:59:01+00:00,246.3131,11.0,12.73,47.84626,-54.09684
